Content
SEND FEEDBACK

Daily
Averages
Monthly
Summary
United States of America

SYRACUSE, NEW YORK


Home > North America > United States > New York
Elevation: 421 feet     Latitude: 43 07N     Longitude: 076 07W

WEATHER
 
SELECT A DAY
Number of Records: 223,832;   Date Range: 1/1/95 - 7/26/14
 
SHARE

PRINT THIS DATA

[ ← Previous Day ]
WEATHER ALMANAC - JANUARY 3, 2013
[ Next Day → ]
[ °C ]   °F
Weather ElementAverageHighLow
Temperature14.5 °F30.2 °F (9:44 pm) (5:54 am)
Dewpoint7.9 °F23 °F (7:54 pm)-9 °F (5:54 am)
Humidity74.9 %86 % (6:00 pm)63 % (1:54 am)
Barometer30.06 in30.24 in (1:54 am)29.97 in (7:16 pm)
Wind Speed6.3 mph20.7 mph (10:34 pm)
Weather ElementAverage
Visibility4.4 mi
Wind DirectionESE (128.9 °)

Weather ElementTotal
Precipitation0.06 in
Heating Degree Days49.9 (Base 65)
Averaged from 47 records on January 3, 2013
WEATHER CONDITIONS BREAKOUT
WIND DIRECTION BREAKOUT
WEATHER BY HOUR - JANUARY 3, 2013
[ °C ]   °F
Local TimeTemperatureDewpointHumidityBarometerVisibilityWind DirectionWind SpeedGust SpeedPrecipitationEventsConditions
1:54 AM5.0 °F-5.1 °F63 %30.24 in9.0 miEast (80°)4.6 mph0.00 inOvercast
2:54 AM3.0 °F-7.1 °F63 %30.24 in10.0 miEast (80°)4.6 mphOvercast
3:54 AM3.0 °F-7.1 °F63 %30.22 in10.0 miEast (90°)6.9 mphOvercast
4:54 AM1.9 °F-8.0 °F63 %30.21 in10.0 miEast (90°)6.9 mph0.00 inSnowLight Snow
5:54 AM0.0 °F-9.0 °F66 %30.20 in9.0 miEast (90°)6.9 mph0.00 inSnowLight Snow
6:54 AM0.0 °F-8.0 °F69 %30.20 in9.0 miEast (90°)6.9 mph0.00 inSnowLight Snow
7:54 AM1.0 °F-7.1 °F69 %30.19 in9.0 miEast (80°)3.5 mph0.00 inSnowLight Snow
8:50 AM1.4 °F-5.8 °F72 %30.16 in2.5 miEast (90°)3.5 mph0.00 inSnowLight Snow
8:54 AM1.9 °F-5.1 °F72 %30.18 in2.0 miEast (100°)4.6 mph0.00 inSnowLight Snow
9:08 AM1.4 °F-4.0 °F78 %30.16 in1.8 miEast (90°)3.5 mph0.00 inSnowLight Snow
9:24 AM1.4 °F-4.0 °F78 %30.15 in1.5 miEast (100°)4.6 mph0.00 inSnowLight Snow
9:44 AM3.2 °F-2.2 °F78 %30.15 in2.0 miEast (100°)5.8 mph0.00 inSnowLight Snow
9:54 AM3.9 °F-2.0 °F76 %30.16 in2.0 miEast (100°)5.8 mph0.00 inSnowLight Snow
10:02 AM3.2 °F-2.2 °F78 %30.14 in3.0 miESE (110°)5.8 mph0.00 inSnowLight Snow
10:54 AM7.0 °F0.0 °F73 %30.14 in4.0 miESE (110°)4.6 mph0.00 inSnowLight Snow
11:21 AM8.6 °F1.4 °F73 %30.12 in2.5 miESE (120°)3.5 mph0.00 inSnowLight Snow
11:31 AM8.6 °F1.4 °F73 %30.11 in3.0 miESE (120°)3.5 mph0.00 inSnowLight Snow
11:54 AM10.0 °F3.0 °F73 %30.11 in4.0 miESE (120°)3.5 mph0.00 inSnowLight Snow
12:54 PM12.9 °F6.1 °F74 %30.07 in10.0 miESE (110°)4.6 mph0.00 inOvercast
1:27 PM14.0 °F6.8 °F73 %30.03 in2.5 miESE (110°)4.6 mph0.00 inSnowLight Snow
1:43 PM15.8 °F8.6 °F73 %30.02 in1.5 miESE (120°)4.6 mph0.00 inSnowLight Snow
1:54 PM15.1 °F8.1 °F74 %30.04 in2.5 miESE (110°)3.5 mph0.00 inSnowLight Snow
2:18 PM15.8 °F8.6 °F73 %30.01 in1.8 miEast (100°)5.8 mph0.00 inSnowLight Snow
2:29 PM15.8 °F10.4 °F79 %30.01 in0.8 miEast (100°)4.6 mph0.00 inSnowLight Snow
2:36 PM15.8 °F10.4 °F79 %30.01 in1.0 miEast (100°)3.5 mph0.00 inSnowLight Snow
2:49 PM15.8 °F10.4 °F79 %30.00 in3.0 miEast (100°)3.5 mph0.00 inSnowLight Snow
2:54 PM16.0 °F10.9 °F81 %30.02 in3.0 miEast (100°)4.6 mph0.00 inSnowLight Snow
2:58 PM15.8 °F10.4 °F79 %30.00 in2.5 miEast (100°)4.6 mph0.00 inSnowLight Snow
3:10 PM17.6 °F10.4 °F73 %30.00 in1.2 miEast (90°)4.6 mph0.01 inSnowLight Snow
3:27 PM17.6 °F12.2 °F79 %30.00 in2.0 miEast (90°)3.5 mph0.01 inSnowLight Snow
3:54 PM18.0 °F12.0 °F78 %30.01 in3.0 miEast (100°)4.6 mph0.01 inSnowLight Snow
4:54 PM18.0 °F12.9 °F81 %30.00 in3.0 miEast (90°)4.6 mph0.00 inSnowLight Snow
5:43 PM19.4 °F14.0 °F80 %29.99 in2.0 miEast (80°)3.5 mph0.00 inSnowLight Snow
5:54 PM19.9 °F15.1 °F81 %30.00 in2.0 miCalm0.00 inSnowLight Snow
6:00 PM19.4 °F15.8 °F86 %29.98 in2.0 miEast (90°)3.5 mph0.00 inSnowLight Snow
6:17 PM19.4 °F15.8 °F86 %29.98 in1.8 miEast (100°)3.5 mph0.00 inSnowLight Snow
6:54 PM21.9 °F18.0 °F85 %29.99 in2.0 miSSW (200°)3.5 mph0.00 inSnowLight Snow
7:16 PM28.4 °F21.2 °F74 %29.97 in3.0 miSW (220°)6.9 mph0.01 inSnowLight Snow
7:29 PM28.4 °F21.2 °F74 %29.97 in2.5 miSW (230°)5.8 mph0.01 inSnowLight Snow
7:54 PM28.9 °F23.0 °F78 %29.99 in2.5 miSW (230°)10.4 mph0.01 inSnowLight Snow
8:16 PM28.4 °F23.0 °F80 %29.97 in4.0 miWSW (240°)10.4 mph0.00 inSnowLight Snow
8:54 PM30.0 °F23.0 °F75 %29.98 in6.0 miWSW (250°)13.8 mph0.00 inSnowLight Snow
9:44 PM30.2 °F23.0 °F75 %29.97 in8.0 miWSW (250°)17.3 mph0.00 inSnowLight Snow
9:54 PM30.0 °F21.9 °F72 %29.99 in9.0 miWSW (250°)17.3 mph0.00 inSnowLight Snow
10:34 PM30.2 °F23.0 °F75 %29.97 in10.0 miWSW (250°)20.7 mph0.00 inOvercast
10:54 PM30.0 °F21.9 °F72 %29.98 in9.0 miWSW (250°)15.0 mph0.00 inSnowLight Snow
11:54 PM30.0 °F21.9 °F72 %29.97 in9.0 miWSW (240°)16.1 mph0.00 inSnowLight Snow
Hourly data recorded from KSYR, located miles away from Syracuse, New York







STORIES FROM OUR PARTNERS